Miscellaneous Local Product
Issued by NWS North Platte, NE

Home | Current Version | Previous Version | Text Only | Print | Product List | Glossary On
Versions: 1 2 3 4 5 6 7 8 9 10 11 12 13 14 15 16 17 18 19 20 21 22 23 24 25 26 27 28 29 30 31 32 33 34 35 36 37 38 39 40 41 42 43 44 45 46 47 48 49 50
000
AXUS43 KLBF 050110
MISLBF


WESTERN AND NORTH CENTRAL NEBRASKA HOURLY WEATHER ROUNDUP
NATIONAL WEATHER SERVICE NORTH PLATTE NE
700 PM CST WED MAR 04 2015

***STATIONS NOT REPORTING VARIABLES SUCH AS SKY/WEATHER OR
PRESSURE ARE PROVIDED BY THE NEBRASKA DEPARTMENT OF
ROADS...RAWS...AND APRS NETWORKS...AND ARE NOT UNDER
NATIONAL WEATHER SERVICE QUALITY CONTROL***

...OBSERVATIONS IN AND NEAR THE EASTERN PANHANDLE OF NEBRASKA...

CITY           SKY/WX    TMP DP  RH WIND       PRES   REMARKS
PINE RIDGE     CLEAR     10   2  69 E6        30.21R WCI   0
CHADRON        PTCLDY    12   3  67 SW10      30.21R WCI  -1
ALLIANCE       CLEAR     18   0  45 NW13      30.17R WCI   5
SIDNEY         CLEAR     20   3  48 N8        30.17R WCI  10
WHITECLAY        N/A     12   1  63 NE6         N/A  WCI   2
CRESCENT LAKE    N/A     18  -5  35 NW8G17      N/A  WCI   8
LISCO            N/A     24  -6  26 W10         N/A  WCI  14
BIG SPRINGS      N/A     24   7  49 NW3         N/A
LEWELLEN         N/A     18 -13  25 NW5         N/A  WCI  11
$$

...OBSERVATIONS IN NORTH CENTRAL NEBRASKA...

CITY           SKY/WX    TMP DP  RH WIND       PRES   REMARKS
VALENTINE      CLEAR     12   1  61 N5        30.28R WCI   4
THEDFORD       CLEAR     18   3  52 N5        30.24R WCI  11
AINSWORTH      CLEAR     11   1  64 N8        30.28R WCI  -1
O`NEILL        CLEAR     12   0  57 N9        30.32R WCI   0
ORD            CLEAR     17  -4  39 N8        30.30R WCI   7
BROKEN BOW     CLEAR     16  -5  39 N8        30.26R WCI   5
BROWNLEE         N/A     10  -6  48 NE10        N/A  WCI  -4
SPRINGVIEW       N/A     12   0  59 CALM        N/A
BREWSTER         N/A     24   7  48 N7          N/A  WCI  16
ROSE             N/A     21  11  65 S3          N/A
NEWPORT          N/A     19   8  61 SW6         N/A  WCI  11
SARGENT          N/A     20   0  42 CALM        N/A
COMSTOCK         N/A     22   0  37 N5          N/A  WCI  16
CHAMBERS         N/A     12  -8  40 N7          N/A  WCI   1
EWING            N/A     12  -1  57 N6          N/A  WCI   3
$$

...OBSERVATIONS IN SOUTHWEST NEBRASKA AND FAR NORTHEAST COLORADO...

CITY           SKY/WX    TMP DP  RH WIND       PRES   REMARKS
WRAY           FAIR      22   9  56 W5        30.22R WCI  16
IMPERIAL         N/A     25   6  44 N8        30.23R WCI  16
OGALLALA       CLEAR     23   1  39 N12       30.22R WCI  12
NORTH PLATTE   CLEAR     23  -3  32 N9        30.24R WCI  13
MCCOOK         CLEAR     23   2  40 NW8       30.27R WCI  14
LEXINGTON      CLEAR     20   6  53 N7        30.27R WCI  12
PAXTON           N/A     26   4  39 NW9         N/A  WCI  17
BRADY            N/A     23  -2  34 CALM        N/A
GOTHENBURG       N/A     24   1  36 N5          N/A  WCI  18
CALLAWAY         N/A     23   1  38 N7          N/A  WCI  15
$$

...NORTH PLATTE AREA...

CITY           SKY/WX    TMP DP  RH WIND       PRES   REMARKS
AIRPORT        CLEAR     23  -3  32 N9        30.24R WCI  13
DOWNTOWN         N/A     24   0  34 N5G12       N/A  WCI  18
$$

...SOME WEATHER OBSERVATIONS FROM AROUND THE REGION...

CITY           SKY/WX    TMP DP  RH WIND       PRES   REMARKS
DENVER         PTCLDY    12   4  70 S7        30.15R WCI   1
LARAMIE        CLEAR      3  -5  69 W8        30.02R WCI -10
CHEYENNE       CLEAR     15  -6  39 NW8       30.07R WCI   4
SCOTTSBLUFF    CLEAR     20   3  48 NW10      30.18R WCI   9
RAPID CITY     CLEAR     10  -2  58 N8        30.21R WCI  -2
PIERRE         CLEAR      8  -7  50 N9        30.32S WCI  -5
WINNER         FAIR       9  -6  50 NE5       30.32R WCI   1
SIOUX FALLS    CLEAR      3  -7  63 NW10      30.36R WCI -12
OMAHA          PTCLDY    20  -1  40 N14       30.38R WCI   7
GRAND ISLAND   CLEAR     18   2  49 NE7       30.33R WCI   9
KANSAS CITY    CLOUDY    26   8  46 N3        30.32R
WICHITA        CLOUDY    29   9  43 NE9       30.33R WCI  20
HAYS           CLEAR     25   1  36 N5        30.32R WCI  19
LIBERAL        CLOUDY    25  12  58 N7        30.29R WCI  17
GOODLAND       CLEAR     21   7  54 N5        30.24R WCI  15
$$



USA.gov is the U.S. government's official web portal to all federal, state and local government web resources and services.